TimeCDT,TemperatureF,Dew PointF,Humidity,Sea Level PressureIn,VisibilityMPH,Wind Direction,Wind SpeedMPH,Gust SpeedMPH,PrecipitationIn,Events,Conditions,WindDirDegrees,DateUTC
12:53 AM,70.0,66.9,90,29.86,6.0,ESE,8.1,-,N/A,,Clear,110,2013-06-27 05:53:00
1:53 AM,70.0,68.0,93,29.85,5.0,East,5.8,-,N/A,,Clear,100,2013-06-27 06:53:00
2:53 AM,71.1,64.9,81,29.84,9.0,Variable,4.6,-,N/A,,Clear,0,2013-06-27 07:53:00
3:53 AM,73.9,59.0,59,29.85,10.0,Calm,Calm,-,N/A,,Clear,0,2013-06-27 08:53:00
4:53 AM,73.0,59.0,61,29.86,10.0,Calm,Calm,-,N/A,,Clear,0,2013-06-27 09:53:00
5:53 AM,66.9,63.0,87,29.87,10.0,Calm,Calm,-,N/A,,Clear,0,2013-06-27 10:53:00
6:53 AM,64.9,62.1,90,29.87,9.0,Calm,Calm,-,N/A,,Clear,0,2013-06-27 11:53:00
7:53 AM,70.0,64.9,84,29.86,10.0,ESE,6.9,-,N/A,,Clear,120,2013-06-27 12:53:00
8:53 AM,78.1,66.0,66,29.89,10.0,North,9.2,-,N/A,,Clear,350,2013-06-27 13:53:00
9:53 AM,79.0,66.9,66,29.91,10.0,NNE,16.1,23.0,N/A,,Clear,20,2013-06-27 14:53:00
10:53 AM,81.0,66.0,60,29.95,10.0,NNE,19.6,27.6,N/A,,Clear,20,2013-06-27 15:53:00
11:53 AM,82.9,64.9,54,29.98,10.0,NE,18.4,25.3,N/A,,Clear,40,2013-06-27 16:53:00
12:53 PM,82.9,64.9,54,30.00,10.0,NNE,19.6,26.5,N/A,,Clear,20,2013-06-27 17:53:00
1:53 PM,84.9,66.0,53,30.00,10.0,NE,17.3,26.5,N/A,,Clear,40,2013-06-27 18:53:00
2:53 PM,87.1,64.9,48,30.01,10.0,NE,17.3,23.0,N/A,,Clear,50,2013-06-27 19:53:00
3:53 PM,87.1,62.1,43,30.00,10.0,NE,12.7,-,N/A,,Clear,50,2013-06-27 20:53:00
4:53 PM,87.1,61.0,41,29.99,10.0,East,12.7,-,N/A,,Clear,80,2013-06-27 21:53:00
5:53 PM,87.1,62.1,43,29.99,10.0,NNE,8.1,17.3,N/A,,Clear,30,2013-06-27 22:53:00
6:53 PM,86.0,62.1,44,29.98,10.0,NNE,11.5,-,N/A,,Clear,30,2013-06-27 23:53:00
7:53 PM,84.0,59.0,43,30.00,10.0,ENE,5.8,-,N/A,,Clear,60,2013-06-28 00:53:00
8:53 PM,79.0,66.0,64,29.98,10.0,East,3.5,-,N/A,,Clear,100,2013-06-28 01:53:00
9:53 PM,70.0,64.0,81,30.00,10.0,ESE,4.6,-,N/A,,Clear,110,2013-06-28 02:53:00
10:53 PM,69.1,63.0,81,30.03,10.0,Calm,Calm,-,N/A,,Clear,0,2013-06-28 03:53:00
11:53 PM,66.9,63.0,87,30.06,10.0,Calm,Calm,-,N/A,,Clear,0,2013-06-28 04:53:00